FW3047 Weather Reports


Display with metric or nautical units.
time (UTC)temp
F
wind
direction
speed
MPH
gust
MPH
rain 1hr
in
rain 24hr
in
rain mn
in
humidity
%
barometer
mb
20260507060028 48 44 0.0 0.0 0.00 0.01 0.00 48 1019.2
20260507054521 48 44 0.0 0.0 0.00 0.04 0.00 47 1019.2
20260507053023 48 44 0.0 0.0 0.00 0.04 0.00 46 1019.2
20260507051520 48 44 0.0 0.0 0.00 0.04 0.00 46 1019.2
20260507050016 49 44 0.0 0.0 0.00 0.04 0.00 43 1019.2
20260507044516 49 44 0.0 0.0 0.00 0.04 0.04 44 1019.1
20260507043016 48 44 0.0 0.0 0.00 0.04 0.04 45 1019.1
20260507041515 48 44 0.0 0.0 0.00 0.04 0.04 46 1019.4
20260507040014 48 44 0.0 0.0 0.00 0.04 0.04 48 1019.4
20260507034518 48 44 0.0 0.0 0.00 0.04 0.04 46 1019.5
20260507033014 48 44 0.0 0.0 0.00 0.04 0.04 47 1019.3
20260507031513 48 44 0.0 0.0 0.00 0.04 0.04 45 1019.4
20260507030014 49 44 0.0 0.0 0.00 0.04 0.04 45 1019.3
20260507024512 49 44 0.0 0.0 0.00 0.04 0.04 44 1019.2
20260507023012 50 44 0.0 0.0 0.00 0.04 0.04 43 1019.1
20260507021515 51 44 0.0 0.0 0.00 0.04 0.04 41 1019.0
20260507020011 52 44 0.0 0.0 0.00 0.04 0.04 37 1019.0
20260507014510 54 44 0.0 0.0 0.00 0.04 0.04 33 1018.9
20260507013009 55 44 0.0 0.0 0.00 0.04 0.04 29 1018.9
20260507011516 56 44 0.0 2.0 0.00 0.04 0.04 27 1018.7
20260507010009 57 44 1.0 3.0 0.00 0.04 0.04 24 1018.6
20260507004512 58 44 1.0 4.0 0.00 0.04 0.04 23 1018.7
20260507003009 58 41 2.0 8.0 0.00 0.04 0.04 22 1018.6
20260507001507 59 24 3.0 10.0 0.00 0.04 0.04 21 1018.7
20260507000006 59 32 3.0 11.0 0.00 0.04 0.04 20 1018.8
20260506234510 59 60 4.0 11.0 0.00 0.04 0.04 21 1018.8
20260506233005 60 32 4.0 10.0 0.00 0.04 0.04 20 1018.6
20260506231504 59 54 2.0 15.0 0.00 0.04 0.04 22 1018.8
20260506230004 60 34 5.0 13.0 0.00 0.04 0.04 22 1018.7
20260506224503 60 350 4.0 11.0 0.00 0.04 0.04 20 1018.8
20260506223001 60 44 3.0 11.0 0.00 0.04 0.04 21 1018.7
20260506221501 59 334 4.0 12.0 0.00 0.04 0.04 21 1019.0
20260506220109 59 30 4.0 14.0 0.00 0.04 0.04 21 1018.9
20260506220003 59 9 3.0 14.0 0.00 0.04 0.04 21 1018.9
20260506214558 59 40 3.0 13.0 0.00 0.04 0.04 22 1019.1
20260506213102 60 288 6.0 12.0 0.00 0.04 0.04 21 1019.1
20260506211557 60 355 3.0 16.0 0.00 0.04 0.04 21 1019.4
20260506210107 59 9 5.0 15.0 0.00 0.04 0.04 22 1019.6
20260506204554 59 73 8.0 16.0 0.00 0.04 0.04 23 1019.8
20260506203139 58 360 3.0 11.0 0.00 0.04 0.04 23 1019.9
20260506201551 58 9 5.0 13.0 0.00 0.04 0.04 24 1020.0
20260506200052 58 5 5.0 14.0 0.00 0.04 0.04 23 1020.2
20260506194549 58 69 4.0 10.0 0.00 0.04 0.04 22 1020.4
20260506193045 58 36 4.0 11.0 0.00 0.04 0.04 24 1020.6
20260506191550 57 13 5.0 14.0 0.00 0.04 0.04 22 1020.5
20260506190048 56 70 5.0 14.0 0.00 0.04 0.04 23 1020.5
20260506184551 56 19 3.0 11.0 0.00 0.04 0.04 25 1020.8
20260506183038 55 52 2.0 9.0 0.00 0.04 0.04 23 1021.0
20260506181538 55 16 3.0 12.0 0.00 0.04 0.04 23 1021.3
20260506180038 55 342 6.0 13.0 0.00 0.04 0.04 23 1021.3
20260506174535 55 26 7.0 14.0 0.00 0.04 0.04 23 1021.3
20260506173044 56 63 5.0 12.0 0.00 0.04 0.04 24 1021.2
20260506171535 55 57 8.0 15.0 0.00 0.04 0.04 23 1021.3
20260506170032 55 59 4.0 13.0 0.00 0.04 0.04 26 1021.3
20260506164531 55 51 8.0 16.0 0.00 0.05 0.04 24 1021.2
20260506163050 55 32 9.0 17.0 0.00 0.05 0.04 26 1021.3
20260506161528 55 78 7.0 14.0 0.00 0.05 0.04 29 1021.0
20260506160025 54 34 6.0 13.0 0.00 0.05 0.04 28 1020.8
20260506154532 54 61 7.0 16.0 0.00 0.08 0.04 28 1020.7
20260506153020 54 5 6.0 14.0 0.00 0.08 0.04 28 1020.6
20260506151518 53 76 6.0 14.0 0.00 0.08 0.04 29 1020.6
20260506150016 53 76 5.0 16.0 0.00 0.08 0.04 31 1020.6
20260506144516 53 69 6.0 11.0 0.00 0.16 0.04 34 1020.6
20260506143014 51 42 2.0 8.0 0.00 0.16 0.04 38 1020.5
20260506141506 50 44 3.0 6.0 0.00 0.16 0.04 41 1020.4
20260506140010 50 57 3.0 6.0 0.00 0.16 0.04 43 1020.1
20260506134506 50 69 2.0 9.0 0.00 0.23 0.04 44 1020.1
20260506133002 50 34 4.0 10.0 0.00 0.23 0.04 43 1019.9
20260506131500 49 53 4.0 9.0 0.00 0.23 0.04 44 1019.6
20260506130059 49 34 4.0 8.0 0.00 0.23 0.04 47 1019.6
20260506124558 48 32 3.0 5.0 0.00 0.28 0.04 51 1019.1
20260506123111 47 327 0.0 3.0 0.00 0.28 0.04 56 1018.8
20260506121610 45 317 0.0 3.0 0.00 0.28 0.04 59 1018.7
20260506120052 45 316 0.0 1.0 0.00 0.28 0.04 61 1018.3
20260506114550 45 316 0.0 1.0 0.00 0.28 0.04 60 1018.1
20260506113050 45 316 0.0 1.0 0.00 0.28 0.04 60 1018.0
20260506111550 45 316 0.0 1.0 0.00 0.28 0.04 60 1018.3
20260506110049 45 316 0.0 3.0 0.00 0.28 0.04 60 1018.4
20260506104549 45 313 0.0 4.0 0.00 0.28 0.04 61 1018.3
20260506103046 45 296 1.0 8.0 0.00 0.28 0.04 62 1018.3
20260506101547 45 208 0.0 3.0 0.00 0.28 0.04 63 1017.8
20260506100042 45 208 0.0 4.0 0.00 0.28 0.04 62 1017.2
20260506094542 45 206 0.0 2.0 0.00 0.28 0.04 62 1017.4
20260506093043 45 206 0.0 2.0 0.00 0.28 0.04 63 1017.3
20260506091540 45 206 0.0 1.0 0.00 0.28 0.04 62 1017.2
20260506090041 45 206 0.0 2.0 0.00 0.28 0.04 62 1017.3
20260506084544 45 206 0.0 3.0 0.00 0.28 0.04 62 1017.3
20260506083038 45 204 0.0 3.0 0.00 0.28 0.04 62 1017.2
20260506081541 45 189 1.0 3.0 0.00 0.28 0.04 62 1016.6
20260506073034 45 172 0.0 3.0 0.00 0.31 0.04 60 1015.9
20260506071532 45 172 2.0 5.0 0.00 0.31 0.04 60 1015.6
20260506061526 46 25 3.0 10.0 0.02 0.31 0.04 54 1016.8